Weather in Bad Gastein

Austria     47°06′50″N   13°07′55″E
temp.,
°C
wind,
m/s
gust,
m/s
humid.,
%
clouds,
%
prec.,
mm/h
press.,
hPa
HPBL,
m
2 march, tue
tue201:00−4s11530 0.0 103521
04:00−5ssw11490 0.0 103421
07:00−5ssw11470 0.0 103521
10:00+2s11800 0.0 103379
13:00+4s22730 0.0 1032210
16:00+3s11730 0.0 103277
19:00−2wnw11610 0.0 103322
22:00−2w11370 0.0 103422
3 march, wed
wed301:00−2nw11320 0.0 103422
04:00−2nnw22300 0.0 103322
07:00−2nnw22380 0.0 103422
10:00+3nnw22580 0.0 103187
13:00+6n11460 0.0 1029388
16:00+4n116337 0.0 102751
19:000nnw125666 0.0 102922
22:00−1nnw113031 0.0 102822
4 march, thu
thu401:00−1nnw112454 0.0 102722
04:00−2nnw112511 0.0 102522
07:00−2nnw112929 0.0 102421
10:00+2nw113699 0.0 102179
13:00+3w013499 0.0 1019538
16:00+2nw0155100 0.0 1016436
19:00−2nnw117872 0.0 101724
22:00−2wnw117996 0.0 101725
5 march, fri
fri501:00−3wnw228798 0.0 101733
04:00−4nw2288100 0.0 101528
07:00−4nnw339591 0.1 1015169
10:00−1nnw237795 0.1 1015445
13:000nw236186 0.4 1015865
16:00−2n3380100 0.4 1016587
19:00−4n4490100 0.8 1019311
22:00−6n4487100 0.4 1023393
6 march, sat
sat601:00−7n3487100 0.6 1026435
04:00−9n338581 0.2 1028514
07:00−10n338775 0.3 1030346
10:00−8n226770 0.0 1031610
13:00−5n225237 0.0 1029928
16:00−5n22560 0.0 1028860
19:00−8nne11782 0.0 1031186
22:00−8se01740 0.0 103298